Вернуться в каталог

NOAA 16 DEB

АктивенPO
NORAD 41363·DEBRIS·🇺🇸 United States

Запущен Sep 21, 2000 с Vandenberg Space Force Base

Loading…

Ближайшие Пролёты (ближайшие 24 часа)

TLE

СвежийSource: Space-Track

Эпоха: Sep 14, 2026, 10:44 UTC

1 41363U 00055JG  26257.44766137  .00026023  00000-0  23367-2 0  9993
2 41363  98.8949 122.9415 0011943  75.6423 284.6119 14.95641512554424

Отслеживайте NOAA 16 DEB в реальном времени с AllMySat

Download on the App Store